Date,TemperatureHighF,TemperatureAvgF,TemperatureLowF,DewpointHighF,DewpointAvgF,DewpointLowF,HumidityHigh,HumidityAvg,HumidityLow,PressureMaxIn,PressureMinIn,WindSpeedMaxMPH,WindSpeedAvgMPH,GustSpeedMaxMPH,PrecipitationSumIn
2013-1-1,59,51,43,58,47,37,98,86,68,0.00,40.00,11,7,19,0.29
2013-1-2,43,40,36,37,31,29,79,70,61,0.00,40.00,10,7,18,0.01
2013-1-3,48,43,38,35,31,29,74,64,48,0.00,40.00,9,5,17,0.00
2013-1-4,46,44,42,39,35,31,83,70,58,0.00,40.00,8,5,16,0.00
2013-1-5,47,44,37,43,40,36,95,85,77,0.00,40.00,5,3,9,0.03
2013-1-6,58,42,31,43,36,30,97,84,50,0.00,40.00,9,3,16,0.02
2013-1-7,58,45,30,45,37,28,95,76,46,0.00,40.00,7,3,12,0.01
2013-1-8,64,56,49,63,54,43,98,93,75,0.00,40.00,7,4,14,0.08
2013-1-9,66,60,53,63,58,52,98,96,87,0.00,40.00,7,4,15,3.44
2013-1-10,69,58,50,55,47,41,99,72,37,0.00,40.00,9,4,19,0.01
2013-1-11,70,59,42,67,55,41,99,87,73,0.00,40.00,11,5,19,0.00
2013-1-12,75,71,50,70,67,44,99,90,79,0.00,40.00,12,8,25,0.11
2013-1-13,51,45,40,44,33,30,85,65,49,0.00,40.00,13,10,24,0.22
2013-1-14,47,41,36,35,30,27,73,65,56,0.00,40.00,11,8,19,0.01
2013-1-15,44,38,36,37,34,30,94,87,68,0.00,40.00,12,8,21,0.06
2013-1-16,53,41,30,30,24,17,84,54,26,0.00,40.00,10,6,19,0.01
2013-1-17,65,44,28,36,30,25,90,64,30,0.00,40.00,9,3,17,0.00
2013-1-18,65,47,33,40,34,31,92,66,31,0.00,40.00,8,4,12,0.00
2013-1-19,70,53,38,49,42,36,95,71,39,0.00,40.00,8,4,15,0.00
2013-1-20,71,54,40,59,46,39,98,78,42,0.00,40.00,6,3,14,0.00
2013-1-21,74,57,44,57,48,43,98,77,43,0.00,40.00,5,2,10,0.00
2013-1-22,74,58,43,53,47,41,95,70,43,0.00,40.00,8,4,15,0.00
2013-1-23,75,60,49,60,54,48,98,82,53,0.00,40.00,8,4,16,0.00
2013-1-24,81,67,60,64,61,58,97,83,50,0.00,40.00,8,6,16,0.00
2013-1-25,80,68,61,64,61,59,95,78,51,0.00,40.00,10,6,19,0.00
2013-1-26,78,65,54,64,57,52,95,77,43,0.00,40.00,9,5,15,0.00
2013-1-27,79,67,58,66,62,57,98,85,62,0.00,40.00,14,8,22,0.00
2013-1-28,78,72,69,67,66,62,89,79,59,0.00,40.00,14,10,23,0.00
2013-1-29,80,72,57,68,65,48,93,79,62,0.00,40.00,16,11,33,0.13
2013-1-30,60,53,36,50,27,18,76,38,20,0.00,40.00,14,7,30,0.10
2013-1-31,69,57,30,32,23,15,90,32,13,0.00,40.00,12,6,18,0.00
2013-2-1,71,58,43,43,38,32,83,52,24,0.00,40.00,9,5,20,0.00
2013-2-2,78,60,44,55,47,41,94,67,35,0.00,40.00,8,4,13,0.00
2013-2-3,73,60,45,48,39,27,90,51,19,0.00,40.00,9,4,15,0.00
2013-2-4,76,63,54,61,54,31,94,73,36,0.00,40.00,8,4,16,0.00
2013-2-5,81,68,61,63,59,50,98,76,37,0.00,40.00,5,3,11,0.00
2013-2-6,69,64,59,64,60,56,97,88,69,0.00,40.00,10,5,18,0.77
2013-2-7,74,63,58,62,59,56,94,85,64,0.00,40.00,6,3,12,0.01
2013-2-8,70,59,51,50,44,36,80,58,29,0.00,40.00,9,6,18,0.00
2013-2-9,70,60,49,66,56,47,92,86,73,0.00,40.00,12,7,20,0.00
2013-2-10,71,64,58,68,53,38,92,69,38,0.00,40.00,11,5,19,0.23
2013-2-11,59,54,51,51,48,42,96,82,62,0.00,40.00,9,6,16,0.20
2013-2-12,69,57,52,56,52,47,98,86,50,0.00,40.00,9,5,18,0.01
2013-2-13,61,50,41,51,37,34,83,62,37,0.00,40.00,12,6,21,0.01
2013-2-14,70,51,34,43,35,30,95,61,23,0.00,40.00,6,2,11,0.00
2013-2-15,65,51,38,44,37,31,94,63,34,0.00,40.00,11,6,22,0.00
2013-2-16,65,50,36,32,28,25,74,46,22,0.00,40.00,6,4,16,0.00
2013-2-17,71,56,43,51,40,30,79,57,25,0.00,40.00,13,7,22,0.00
2013-2-18,79,68,62,63,55,32,82,65,29,0.00,40.00,11,8,21,0.04
2013-2-19,69,57,42,38,33,27,83,43,22,0.00,40.00,8,5,17,0.04
2013-2-20,64,58,53,61,49,37,97,73,47,0.00,40.00,16,8,27,0.03
2013-2-21,77,68,52,69,54,35,98,67,23,0.00,40.00,13,7,24,0.06
2013-2-22,60,53,48,45,41,37,84,64,48,0.00,40.00,10,6,19,0.01
2013-2-23,68,53,42,40,35,30,72,51,32,0.00,40.00,8,5,14,0.00
2013-2-24,72,57,41,56,47,37,88,69,45,0.00,40.00,12,6,19,0.00
2013-2-25,71,60,48,60,40,16,97,56,12,0.00,40.00,20,11,35,0.01
2013-2-26,66,52,41,34,30,26,62,44,23,0.00,40.00,12,6,21,0.01
2013-2-27,64,53,41,44,32,21,86,49,24,0.00,40.00,15,6,27,0.00
2013-2-28,60,48,37,29,26,22,70,43,25,0.00,40.00,11,6,24,0.00
2013-3-1,67,50,32,33,27,23,82,48,20,0.00,40.00,9,3,17,0.00
2013-3-2,59,46,37,32,25,17,70,47,19,0.00,40.00,15,6,25,0.00
2013-3-3,72,52,30,47,33,22,84,52,26,0.00,40.00,11,6,21,0.00
2013-3-4,85,67,54,58,53,47,87,64,30,0.00,40.00,11,8,23,0.00
2013-3-5,65,58,46,61,32,14,88,43,14,0.00,40.00,16,10,28,0.00
2013-3-6,67,52,40,27,20,13,43,30,12,0.00,40.00,9,4,15,0.00
2013-3-7,74,56,39,50,43,26,90,64,41,0.00,40.00,10,6,21,0.00
2013-3-8,70,62,54,60,55,47,88,78,66,0.00,40.00,12,9,22,0.00
2013-3-9,75,68,60,64,61,57,91,80,63,0.00,40.00,15,10,25,0.00
2013-3-10,69,63,53,66,47,35,97,61,33,0.00,40.00,13,8,24,0.27
2013-3-11,64,53,43,34,25,15,63,38,15,0.00,40.00,13,6,21,0.19
2013-3-12,76,55,35,40,32,26,85,48,21,0.00,40.00,8,4,14,0.00
2013-3-13,76,59,41,48,39,34,92,53,24,0.00,40.00,6,3,15,0.00
2013-3-14,78,60,40,54,45,36,93,61,33,0.00,40.00,10,5,18,0.00
2013-3-15,79,64,50,58,49,45,97,65,31,0.00,40.00,11,6,24,0.00
2013-3-16,82,69,56,61,57,52,97,70,36,0.00,40.00,13,10,24,0.00
2013-3-17,84,72,64,65,62,59,92,73,45,0.00,40.00,13,8,24,0.00
2013-3-18,91,76,67,65,60,49,93,62,28,0.00,40.00,13,6,20,0.00
2013-3-19,82,68,51,63,55,45,81,63,49,0.00,40.00,10,5,17,0.00
2013-3-20,72,62,53,62,50,38,94,68,29,0.00,40.00,12,6,21,0.58
2013-3-21,72,62,49,62,53,44,93,73,53,0.00,40.00,13,7,24,0.02
2013-3-22,85,73,68,68,65,55,89,76,50,0.00,40.00,9,7,17,0.00
2013-3-23,76,62,54,62,55,50,93,77,62,0.00,40.00,8,4,14,0.02
2013-3-24,62,54,45,58,35,22,96,52,26,0.00,40.00,16,11,31,0.02
2013-3-25,60,48,38,29,21,14,68,38,18,0.00,40.00,10,5,18,0.00
2013-3-26,65,51,35,31,21,17,72,35,16,0.00,40.00,6,4,13,0.00
2013-3-27,70,50,34,41,33,24,89,57,31,0.00,40.00,10,4,20,0.00
2013-3-28,73,69,62,57,55,54,74,61,53,0.00,40.00,12,9,20,0.00
2013-3-29,78,66,54,61,55,53,97,71,48,0.00,40.00,10,7,18,0.00
2013-3-30,84,72,63,64,59,-100,91,70,42,0.00,40.00,10,7,19,0.00
2013-3-31,84,74,68,65,63,59,85,71,49,0.00,40.00,9,5,19,0.00
2013-4-1,85,72,63,68,63,60,95,74,45,0.00,40.00,9,4,18,0.00
2013-4-2,72,66,63,67,63,60,96,89,77,0.00,40.00,14,6,23,2.85
2013-4-3,63,56,51,61,54,48,95,91,84,0.00,40.00,10,7,22,3.17
2013-4-4,55,52,45,48,44,41,89,76,61,0.00,40.00,11,7,23,0.07
2013-4-5,73,56,39,50,44,38,96,68,38,0.00,40.00,6,3,11,0.00
2013-4-6,75,64,53,58,54,49,94,74,53,0.00,40.00,11,7,21,0.00
2013-4-7,81,69,59,62,59,57,96,74,50,0.00,40.00,13,8,24,0.00
2013-4-8,78,72,67,67,64,61,91,78,58,0.00,40.00,14,9,23,0.00
2013-4-9,82,74,68,69,66,63,89,77,56,0.00,40.00,14,11,27,0.00
2013-4-10,75,60,47,70,55,41,91,84,77,0.00,40.00,14,10,27,0.14
2013-4-11,69,55,45,42,38,34,80,56,31,0.00,40.00,10,6,23,0.01
2013-4-12,80,60,42,53,44,40,95,62,26,0.00,40.00,8,3,12,0.00
2013-4-13,77,64,47,58,52,46,96,69,41,0.00,40.00,9,4,18,0.00
2013-4-14,87,68,55,67,61,54,96,80,48,0.00,40.00,11,5,20,0.00
2013-4-15,84,75,70,69,67,66,89,77,57,0.00,40.00,13,8,21,0.00
2013-4-16,86,76,69,72,68,65,94,77,53,0.00,40.00,14,8,23,0.00
2013-4-17,82,76,73,72,70,68,95,83,65,0.00,40.00,14,10,24,0.01
2013-4-18,74,63,52,72,57,40,96,81,57,0.00,40.00,13,10,26,0.38
2013-4-19,67,55,44,40,32,24,76,47,20,0.00,40.00,13,7,24,0.01
2013-4-20,71,56,37,46,37,32,88,55,25,0.00,40.00,9,5,17,0.00
2013-4-21,77,63,47,56,51,44,93,69,45,0.00,40.00,7,4,14,0.00
2013-4-22,83,68,51,61,57,50,97,72,43,0.00,40.00,10,5,17,0.00
2013-4-23,82,70,55,66,61,45,88,74,54,0.00,40.00,11,7,21,0.00
2013-4-24,67,56,45,45,40,36,85,59,39,0.00,40.00,12,9,25,0.00
2013-4-25,71,63,57,49,44,41,61,51,35,0.00,40.00,7,5,15,0.00
2013-4-26,82,72,64,68,64,49,97,76,54,0.00,40.00,12,8,23,0.00
2013-4-27,80,72,67,71,68,64,95,88,63,0.00,40.00,8,4,18,0.25
2013-4-28,82,71,60,66,63,59,97,78,53,0.00,40.00,14,4,34,0.31
2013-4-29,83,70,64,69,65,61,98,85,54,0.00,40.00,12,4,27,0.15
2013-4-30,84,76,64,67,64,61,99,71,48,0.00,40.00,7,4,12,0.16
2013-5-1,87,75,67,70,65,58,94,74,38,0.00,40.00,8,4,14,0.00
2013-5-2,72,62,48,69,53,39,93,74,60,0.00,40.00,16,10,31,0.00
2013-5-3,68,54,45,39,31,24,73,45,19,0.00,40.00,16,10,31,0.00
2013-5-4,82,60,39,46,39,36,90,54,21,0.00,40.00,10,4,20,0.00
2013-5-5,76,62,51,47,43,36,78,51,32,0.00,40.00,9,5,18,0.00
2013-5-6,78,63,47,53,48,44,93,61,37,0.00,40.00,6,2,9,0.00
2013-5-7,85,68,49,56,53,48,97,65,35,0.00,40.00,7,3,13,0.00
2013-5-8,86,72,59,67,60,50,99,69,35,0.00,40.00,11,6,21,0.00
2013-5-9,82,74,69,72,68,63,93,83,70,0.00,40.00,13,7,23,0.02
2013-5-10,81,73,65,72,66,63,97,82,59,0.00,40.00,9,4,22,1.58
2013-5-11,83,71,63,66,58,-100,96,70,37,0.00,40.00,9,5,19,0.22
2013-5-12,83,71,62,58,52,47,71,52,31,0.00,40.00,8,4,15,0.00
2013-5-13,84,70,54,61,55,51,94,63,38,0.00,40.00,8,3,15,0.00
2013-5-14,84,72,60,67,63,59,98,75,49,0.00,40.00,10,6,20,0.00
2013-5-15,81,74,69,72,68,66,97,84,68,0.00,40.00,13,9,22,0.16
2013-5-16,87,69,70,71,45,-100,96,77,59,0.00,40.00,13,10,23,0.05
2013-5-17,91,78,74,74,64,-100,86,74,57,0.00,40.00,12,8,19,0.05
2013-5-18,92,81,73,72,69,66,93,71,44,0.00,40.00,11,8,21,0.00
2013-5-19,90,80,73,72,69,65,89,71,49,0.00,40.00,14,10,23,0.00
2013-5-20,90,81,76,72,70,68,84,71,52,0.00,40.00,13,9,22,0.00
2013-5-21,89,81,71,73,71,63,90,73,56,0.00,40.00,13,8,22,0.00
2013-5-22,90,76,63,73,67,60,95,77,58,0.00,40.00,5,3,16,0.00
2013-5-23,91,81,74,74,72,69,93,74,52,0.00,40.00,10,6,17,0.00
2013-5-24,89,80,74,74,71,69,95,77,54,0.00,40.00,10,6,17,0.00
2013-5-25,80,76,74,74,72,71,94,88,76,0.00,40.00,9,5,15,0.14
2013-5-26,89,79,72,73,70,67,97,76,50,0.00,40.00,10,6,18,0.01
2013-5-27,92,80,70,71,69,65,97,73,46,0.00,40.00,12,7,23,0.00
2013-5-28,91,80,72,71,69,67,91,71,47,0.00,40.00,14,10,22,0.00
2013-5-29,87,80,74,73,71,69,90,76,57,0.00,40.00,16,10,26,0.00
2013-5-30,92,82,76,73,72,70,88,72,50,0.00,40.00,12,9,21,0.00
2013-5-31,95,84,77,75,72,70,90,70,45,0.00,40.00,12,9,23,0.00
2013-6-1,97,85,78,74,72,69,86,67,41,0.00,40.00,11,8,21,0.00
2013-6-2,88,78,69,74,68,61,95,76,44,0.00,40.00,7,4,18,0.55
2013-6-3,94,79,64,69,65,60,97,66,33,0.00,40.00,6,2,11,0.02
2013-6-4,94,81,67,74,68,66,98,70,41,0.00,40.00,8,5,14,0.00
2013-6-5,93,82,71,75,70,66,98,69,41,0.00,40.00,9,5,16,0.00
2013-6-6,96,83,72,75,69,63,97,68,35,0.00,40.00,11,4,23,0.00
2013-6-7,92,78,67,67,61,50,90,60,26,0.00,40.00,7,3,15,0.00
2013-6-8,93,79,64,71,64,57,83,62,37,0.00,40.00,13,4,19,0.00
2013-6-9,87,78,71,74,72,69,96,82,58,0.00,40.00,8,5,18,0.91
2013-6-10,95,83,69,75,70,66,97,69,40,0.00,40.00,8,4,16,0.07
2013-6-11,91,80,73,76,74,71,98,83,53,0.00,40.00,8,3,17,0.00
2013-6-12,91,82,73,77,73,69,98,77,55,0.00,40.00,9,4,18,0.00
2013-6-13,95,82,73,76,73,68,97,77,45,0.00,40.00,7,3,12,0.00
2013-6-14,95,84,75,80,73,69,98,72,43,0.00,40.00,6,3,12,0.00
2013-6-15,97,85,76,77,71,65,94,68,38,0.00,40.00,8,4,15,0.00
2013-6-16,98,86,74,77,71,65,96,66,34,0.00,40.00,8,5,15,0.00
2013-6-17,98,84,74,76,72,62,95,69,31,0.00,40.00,9,6,16,0.00
2013-6-18,95,85,76,75,70,61,93,64,33,0.00,40.00,8,5,16,0.00
2013-6-19,98,86,76,75,70,62,93,63,31,0.00,40.00,8,6,19,0.00
2013-6-20,96,83,75,76,72,65,95,73,38,0.00,40.00,9,5,17,0.00
2013-6-22,98,92,82,77,70,65,81,50,37,0.00,40.00,10,9,19,0.00
2013-6-23,95,84,74,76,70,62,96,67,39,0.00,40.00,12,7,18,0.01
2013-6-24,97,85,74,76,70,65,96,66,35,0.00,40.00,14,7,21,0.01
2013-6-25,99,86,75,76,69,59,94,62,28,0.00,40.00,13,8,22,0.00
2013-6-26,101,87,76,74,70,65,93,63,33,0.00,40.00,10,7,19,0.00
2013-6-27,101,87,75,76,69,55,95,62,23,0.00,40.00,9,5,16,0.00
2013-6-28,105,90,77,74,67,60,88,54,25,0.00,40.00,8,4,16,0.00
2013-6-29,107,92,76,72,65,54,78,46,18,0.00,40.00,9,5,18,0.00
2013-6-30,99,88,74,71,63,55,85,47,28,0.00,40.00,7,4,14,0.01
2013-7-1,93,83,70,59,53,48,63,38,24,0.00,40.00,10,5,21,0.01
2013-7-2,96,81,67,60,53,43,72,43,20,0.00,40.00,7,3,16,0.00
2013-7-3,98,82,66,62,53,41,75,43,14,0.00,40.00,10,3,16,0.00
2013-7-4,97,83,68,72,63,52,92,57,23,0.00,40.00,12,4,19,0.00
2013-7-5,98,84,68,72,65,56,93,57,26,0.00,40.00,9,4,15,0.00
2013-7-6,98,82,70,73,66,60,86,62,31,0.00,40.00,12,4,19,0.00
2013-7-7,96,83,73,76,71,65,94,69,36,0.00,40.00,13,5,25,0.00
2013-7-8,94,81,75,74,72,66,92,76,44,0.00,40.00,8,6,19,0.08
2013-7-9,99,85,74,79,72,65,98,69,35,0.00,40.00,11,6,21,0.08
2013-7-10,100,86,75,76,68,-100,95,61,33,0.00,40.00,10,6,19,0.00
2013-7-11,100,86,74,76,69,59,95,61,29,0.00,40.00,10,5,15,0.00
2013-7-12,100,87,76,75,69,63,91,60,31,0.00,40.00,10,5,18,0.00
2013-7-13,104,89,73,72,65,56,91,52,21,0.00,40.00,6,3,15,0.01
2013-7-14,95,83,72,72,68,62,94,64,40,0.00,40.00,11,5,19,0.30
2013-7-15,88,77,73,74,71,69,93,85,54,0.00,40.00,7,4,13,0.42
2013-7-16,89,85,76,72,68,63,86,59,44,0.00,40.00,12,8,25,0.10
2013-7-17,90,78,74,75,72,69,91,83,51,0.00,40.00,6,4,16,0.25
2013-7-18,95,82,73,76,71,65,95,73,39,0.00,40.00,9,3,24,0.02
2013-7-19,98,80,71,75,71,66,96,78,37,0.00,40.00,7,3,14,0.04
2013-7-20,96,80,72,76,69,-100,96,74,39,0.00,40.00,12,4,24,0.03
2013-7-21,92,79,74,78,74,66,97,86,54,0.00,40.00,8,3,24,0.69
2013-7-22,95,85,78,78,74,70,94,72,44,0.00,40.00,11,7,20,0.68
2013-7-23,97,86,78,76,72,60,91,67,32,0.00,40.00,10,8,22,0.00
2013-7-24,95,85,75,76,72,67,94,68,41,0.00,40.00,8,6,17,0.00
2013-7-25,99,86,75,74,70,61,93,64,29,0.00,40.00,9,5,16,0.00
2013-7-26,97,86,78,76,73,67,92,67,38,0.00,40.00,11,6,18,0.00
2013-7-27,91,84,78,77,72,68,89,70,51,0.00,40.00,8,5,17,0.00
2013-7-28,98,86,76,77,70,67,87,63,37,0.00,40.00,10,6,17,0.00
2013-7-29,99,86,76,76,70,56,93,64,24,0.00,40.00,13,8,23,0.00
2013-7-30,101,86,76,76,70,60,92,64,26,0.00,40.00,11,7,20,0.00
2013-7-31,103,87,75,76,68,56,94,60,23,0.00,40.00,9,5,15,0.00
2013-8-1,104,90,77,74,68,64,88,52,28,0.00,40.00,8,5,16,0.00
2013-8-2,101,88,76,75,69,62,89,57,28,0.00,40.00,10,6,17,0.00
2013-8-3,101,87,74,75,70,66,94,61,32,0.00,40.00,11,6,20,0.00
2013-8-4,101,87,76,77,72,66,94,64,34,0.00,40.00,11,6,19,0.00
2013-8-5,102,88,75,77,70,62,93,61,28,0.00,40.00,12,6,24,0.00
2013-8-6,103,88,79,75,70,62,87,60,28,0.00,40.00,11,8,21,0.00
2013-8-7,104,89,80,75,70,60,86,59,25,0.00,40.00,12,8,21,0.00
2013-8-8,104,88,78,75,69,55,87,59,20,0.00,40.00,11,7,21,0.00
2013-8-9,103,88,76,75,69,61,92,60,27,0.00,40.00,9,5,16,0.00
2013-8-10,102,88,77,76,72,63,86,62,35,0.00,40.00,16,6,26,0.01
2013-8-11,97,83,75,77,73,62,94,75,39,0.00,40.00,11,3,18,0.03
2013-8-12,99,86,74,76,70,63,96,66,33,0.00,40.00,10,4,20,0.01
2013-8-13,102,89,79,76,67,-100,91,56,25,0.00,40.00,9,6,17,0.00
2013-8-14,103,86,78,76,70,62,88,63,27,0.00,40.00,11,5,20,0.00
2013-8-15,99,78,76,73,58,-100,88,62,40,0.00,40.00,8,4,14,0.46
2013-8-16,98,82,74,77,68,-100,95,72,38,0.00,40.00,9,4,14,0.46
2013-8-17,94,82,72,70,60,-100,90,55,24,0.00,40.00,8,4,15,0.01
2013-8-18,98,83,68,71,61,52,90,54,23,0.00,40.00,6,3,15,0.00
2013-8-19,96,79,68,72,52,-100,93,55,27,0.00,40.00,8,4,14,0.00
2013-8-20,94,79,68,75,64,-100,90,65,36,0.00,40.00,12,4,20,0.00
2013-8-21,97,82,71,77,71,66,93,73,39,0.00,40.00,6,3,19,0.07
2013-8-22,98,85,72,76,71,64,96,67,38,0.00,40.00,9,4,18,0.07
2013-8-23,99,85,72,76,70,63,95,66,33,0.00,40.00,7,3,16,0.00
2013-8-24,99,86,74,74,66,-100,91,57,32,0.00,40.00,8,4,16,0.00
2013-8-25,92,84,76,73,70,68,81,64,46,0.00,40.00,10,5,17,0.00
2013-8-26,86,79,75,74,71,67,92,78,55,0.00,40.00,13,6,22,0.22
2013-8-27,88,78,73,76,72,71,94,85,63,0.00,40.00,8,4,17,0.22
2013-8-28,95,90,82,69,66,64,66,47,38,0.00,40.00,7,5,12,0.01
2013-8-29,101,87,72,75,68,61,93,59,29,0.00,40.00,6,3,11,0.00
2013-8-30,101,87,74,73,68,64,89,58,30,0.00,40.00,8,4,18,0.00
2013-8-31,100,86,74,74,67,-100,91,58,33,0.00,40.00,9,5,15,0.00
2013-9-1,99,86,73,74,68,61,90,61,29,0.00,40.00,9,5,18,0.00
2013-9-2,101,85,75,78,70,59,92,66,26,0.00,40.00,8,4,17,0.00
2013-9-3,101,84,72,73,69,61,91,67,28,0.00,40.00,7,3,15,0.03
2013-9-4,100,85,76,75,71,64,91,67,32,0.00,40.00,8,4,15,0.01
2013-9-5,98,84,74,75,70,66,92,68,36,0.00,40.00,9,4,25,0.00
2013-9-6,97,83,72,74,70,65,93,68,35,0.00,40.00,11,3,21,0.00
2013-9-7,96,79,72,75,68,-100,93,73,38,0.00,40.00,9,3,22,0.00
2013-9-8,93,79,71,76,71,65,94,80,40,0.00,40.00,7,3,27,0.82
2013-9-9,95,78,71,74,71,66,96,81,39,0.00,40.00,11,3,26,0.52
2013-9-10,93,82,72,75,70,61,96,71,38,0.00,40.00,9,4,17,0.01
2013-9-11,96,83,73,73,69,60,94,67,33,0.00,40.00,9,4,19,0.00
2013-9-12,95,82,71,75,68,62,95,67,37,0.00,40.00,8,3,13,0.00
2013-9-13,97,83,69,71,64,58,92,58,29,0.00,40.00,9,3,14,0.00
2013-9-14,96,82,72,72,66,-100,86,61,40,0.00,40.00,8,4,15,0.00
2013-9-15,95,82,74,72,69,65,91,68,40,0.00,40.00,7,4,16,0.00
2013-9-16,94,82,76,76,71,65,87,73,39,0.00,40.00,10,4,16,0.02
2013-9-17,95,83,74,77,70,64,95,69,39,0.00,40.00,10,4,17,0.01
2013-9-18,83,75,72,71,70,67,94,84,59,0.00,40.00,6,2,13,0.00
2013-9-19,95,82,74,76,72,65,94,75,41,0.00,40.00,11,4,20,0.01
2013-9-20,82,77,73,77,74,70,96,91,83,0.00,40.00,12,4,19,1.78
2013-9-21,83,74,70,70,64,-100,94,75,49,0.00,40.00,10,7,20,0.82
2013-9-22,86,72,63,61,54,43,78,56,23,0.00,40.00,9,4,16,0.00
2013-9-23,90,76,63,68,63,58,85,67,44,0.00,40.00,5,2,11,0.00
2013-9-24,95,80,69,70,65,58,94,66,29,0.00,40.00,8,3,14,0.00
2013-9-25,97,81,65,65,61,55,92,57,25,0.00,40.00,6,2,10,0.00
2013-9-26,93,80,66,71,64,59,92,62,34,0.00,40.00,9,5,17,0.00
2013-9-27,91,80,71,78,71,65,93,74,52,0.00,40.00,12,6,19,0.00
2013-9-28,94,82,78,77,72,-100,93,76,47,0.00,40.00,13,7,21,0.01
2013-9-29,80,76,71,76,71,67,95,84,71,0.00,40.00,6,4,13,0.20
2013-9-30,91,76,67,68,62,46,93,67,22,0.00,40.00,5,2,10,0.01
2013-10-1,83,79,76,71,71,70,84,76,65,0.00,40.00,8,5,13,0.00
2013-10-2,92,80,71,75,71,68,96,77,48,0.00,40.00,10,5,19,0.00
2013-10-3,91,81,74,75,71,66,97,74,45,0.00,40.00,10,5,17,0.00
2013-10-4,91,80,71,75,70,66,98,75,45,0.00,40.00,11,5,17,0.00
2013-10-5,92,77,65,74,66,49,99,72,40,0.00,40.00,12,4,25,0.00
2013-10-6,81,66,56,55,45,30,88,53,18,0.00,40.00,9,6,21,0.14
2013-10-7,84,66,50,50,44,32,87,54,17,0.00,40.00,6,3,14,0.01
2013-10-8,86,67,49,54,44,39,93,54,19,0.00,40.00,6,2,11,0.00
2013-10-9,86,68,51,58,53,46,92,62,36,0.00,40.00,8,3,14,0.00
2013-10-10,87,75,60,65,61,57,95,64,38,0.00,40.00,10,5,16,0.00
2013-10-11,90,77,69,72,68,64,87,75,51,0.00,40.00,11,7,19,0.00
2013-10-12,91,78,74,79,72,-100,96,82,55,0.00,40.00,7,4,13,0.15
2013-10-13,78,74,68,73,70,65,97,89,82,0.00,40.00,9,5,20,2.05
2013-10-14,83,77,72,74,70,67,95,80,59,0.00,40.00,10,5,18,0.10
2013-10-15,86,77,70,74,69,64,97,78,58,0.00,40.00,10,4,17,0.03
2013-10-16,69,61,58,64,58,55,93,89,85,0.00,40.00,7,6,15,0.67
2013-10-17,74,64,55,57,53,49,92,70,41,0.00,40.00,8,4,14,0.04
2013-10-18,73,64,55,62,57,53,94,81,63,0.00,40.00,8,3,13,0.22
2013-10-19,67,58,49,62,45,-100,96,67,35,0.00,40.00,10,6,20,0.51
2013-10-20,75,58,43,54,48,41,95,74,34,0.00,40.00,8,2,13,0.01
2013-10-21,81,69,56,67,62,54,94,78,56,0.00,40.00,6,3,18,0.76
2013-10-22,75,64,52,60,49,41,87,62,29,0.00,40.00,9,6,16,0.76
2013-10-23,82,62,49,53,48,42,94,67,25,0.00,40.00,5,2,10,0.00
2013-10-24,83,64,49,56,50,46,93,68,28,0.00,40.00,6,2,9,0.00
2013-10-25,79,66,52,60,56,50,94,73,48,0.00,40.00,7,3,14,0.00
2013-10-26,82,68,57,64,57,-100,91,72,49,0.00,40.00,10,5,16,0.00
2013-10-27,73,66,61,64,62,59,95,86,69,0.00,40.00,9,3,22,1.14
2013-10-28,85,72,64,69,63,-100,96,79,52,0.00,40.00,10,5,17,0.03
2013-10-29,84,76,68,70,67,65,92,74,55,0.00,40.00,10,8,18,0.00
2013-10-30,85,78,72,75,72,69,96,83,63,0.00,40.00,11,8,22,0.47
2013-10-31,83,73,55,73,60,42,94,69,24,0.00,40.00,12,6,22,1.41
2013-11-1,83,65,49,59,52,41,95,67,35,0.00,40.00,11,3,21,0.00
2013-11-2,73,63,50,46,39,-100,83,45,23,0.00,40.00,11,7,20,0.00
2013-11-3,72,57,43,52,44,38,94,67,32,0.00,40.00,8,3,15,0.00
2013-11-4,71,64,57,65,58,51,93,80,70,0.00,40.00,8,5,14,0.00
2013-11-5,76,70,66,70,67,63,93,89,78,0.00,40.00,9,6,16,0.04
2013-11-6,75,65,53,70,60,43,97,82,66,0.00,40.00,11,5,21,0.11
2013-11-7,65,55,47,43,40,35,81,58,36,0.00,40.00,10,5,18,0.01
2013-11-8,66,57,46,47,41,35,90,61,32,0.00,40.00,7,3,15,0.00
2013-11-9,70,58,53,56,47,-100,80,69,56,0.00,40.00,6,2,11,0.00
2013-11-10,73,64,53,56,52,49,90,67,46,0.00,40.00,5,3,10,0.00
2013-11-11,74,62,49,55,52,47,94,72,46,0.00,40.00,5,2,10,0.00
2013-11-12,63,55,47,53,45,28,93,71,47,0.00,40.00,13,7,23,0.00
2013-11-13,56,45,34,31,26,21,88,51,26,0.00,40.00,7,5,15,0.00
2013-11-14,62,47,31,50,39,29,92,74,48,0.00,40.00,7,3,11,0.00
2013-11-15,78,63,54,61,56,49,90,77,52,0.00,40.00,8,4,15,0.00
2013-11-16,81,69,59,71,63,-100,98,85,66,0.00,40.00,11,5,19,0.00
2013-11-17,87,77,70,71,69,67,94,78,53,0.00,40.00,7,4,14,0.00
2013-11-18,75,71,65,72,66,45,100,86,48,0.00,40.00,5,3,14,0.00
2013-11-19,72,64,54,50,44,39,85,49,37,0.00,40.00,6,4,14,0.00
2013-11-20,72,65,51,66,57,45,94,77,58,0.00,40.00,8,5,15,0.01
2013-11-21,83,76,68,74,70,67,100,85,68,0.00,40.00,8,6,16,0.14
2013-11-22,75,48,38,72,44,34,94,86,81,0.00,40.00,13,10,22,0.13
2013-11-23,47,42,38,40,36,-100,87,82,74,0.00,40.00,12,9,23,0.02
2013-11-24,47,42,38,40,33,28,88,71,57,0.00,40.00,9,7,17,0.11
2013-11-25,41,39,37,38,36,33,93,91,82,0.00,40.00,11,6,21,0.72
2013-11-26,48,41,36,37,35,30,91,78,62,0.00,40.00,12,7,24,0.03
2013-11-27,51,41,31,30,24,20,87,55,31,0.00,40.00,9,5,17,0.00
2013-11-28,58,40,28,34,30,26,92,71,33,0.00,40.00,5,2,9,0.00
2013-11-29,64,47,35,44,39,33,95,78,49,0.00,40.00,6,2,14,0.00
2013-11-30,70,55,39,55,46,-100,95,75,55,0.00,40.00,8,4,14,0.00
2013-12-1,73,62,53,59,56,51,93,80,58,0.00,40.00,7,3,14,0.00
2013-12-2,80,66,58,59,55,47,96,73,31,0.00,40.00,7,2,12,0.00
2013-12-3,82,66,52,62,58,51,97,78,44,0.00,40.00,7,3,13,0.00
2013-12-4,77,70,60,68,64,60,100,83,66,0.00,40.00,10,5,17,0.00
2013-12-5,72,50,36,69,43,26,92,77,62,0.00,40.00,12,9,23,0.00
2013-12-6,38,35,31,33,29,23,88,79,72,0.00,40.00,13,10,24,0.02
2013-12-7,32,30,29,26,22,-100,90,77,70,0.00,40.00,12,8,21,0.01
2013-12-8,44,37,29,41,33,26,96,85,72,0.00,40.00,5,2,11,0.02
2013-12-9,43,41,36,42,39,30,97,93,79,0.00,40.00,12,6,22,0.10
2013-12-10,45,36,29,30,24,19,86,62,41,0.00,40.00,11,7,22,0.01
2013-12-11,50,40,28,36,31,25,90,71,49,0.00,40.00,6,2,11,0.00
2013-12-12,52,42,33,35,32,30,88,70,46,0.00,40.00,6,3,10,0.00
2013-12-13,53,47,38,49,41,34,94,80,67,0.00,40.00,6,2,12,0.02
2013-12-14,55,47,40,52,41,-100,100,82,63,0.00,40.00,16,7,28,0.01
2013-12-15,60,43,28,33,30,26,93,65,33,0.00,40.00,8,3,15,0.00
2013-12-16,66,45,27,38,30,25,93,63,24,0.00,40.00,8,3,13,0.00
2013-12-17,73,51,31,44,37,29,93,64,28,0.00,40.00,7,2,11,0.00
2013-12-18,71,51,33,53,42,31,95,75,42,0.00,40.00,8,3,14,0.00
2013-12-19,77,67,56,66,58,50,89,75,59,0.00,40.00,13,8,25,0.00
2013-12-20,76,72,69,68,66,64,89,81,71,0.00,40.00,11,9,24,0.00
2013-12-21,74,64,50,70,59,-100,98,89,73,0.00,40.00,17,7,28,0.42
2013-12-22,54,50,38,53,42,30,99,77,50,0.00,40.00,11,6,19,0.01
2013-12-23,54,40,32,32,29,26,89,66,37,0.00,40.00,8,4,16,0.01
2013-12-24,59,42,26,35,29,24,93,66,29,0.00,40.00,7,2,12,0.00
2013-12-25,56,48,37,50,43,34,95,84,67,0.00,40.00,6,3,11,0.01
2013-12-26,53,48,41,49,42,36,95,79,62,0.00,40.00,7,3,12,0.01
2013-12-27,60,51,44,43,40,39,88,70,48,0.00,40.00,5,2,12,0.00
2013-12-28,61,49,39,43,32,-100,92,61,24,0.00,40.00,4,1,9,0.00
2013-12-29,66,48,36,47,38,30,87,69,46,0.00,40.00,13,4,23,0.00
2013-12-30,42,38,35,31,27,24,78,64,54,0.00,40.00,11,7,21,0.00
2013-12-31,48,41,36,33,29,26,77,62,44,0.00,40.00,6,2,12,0.00
2014-1-1,62,50,38,50,42,33,87,72,57,0.00,40.00,6,2,11,0.00
2014-1-2,57,43,32,49,27,20,78,54,33,0.00,40.00,16,8,27,0.00